Temp
-8 -8 -8 -8 -8 -8 -8 -8 -8 -7 -8 -8 -8 -8 -8 -7 -7 -7 -7 -7 -7 -7 -7 -7 -7 -7 -7 -7 -7 -7 -8 -8 -8 -8 -7 -8 -7 -8 -7 -7 -7 -7 -7
-8 -8 -8 -8 -8 -8 -8 -8 -8 -8 -8 -9 -8 -8 -8 -8 -7 -7 -7 -7 -7 -7 -7 -7 -7 -7 -7 -7 -7 -8 -7 -7 -7 -7 -7 -7 -7 -7 -7 -7 -7 -7 -7
-7 -8 -8 -9 -8 -8 -8 -8 -8 -8 -8 -9 -9 -8 -8 -8 -7 -8 -8 -7 -8 -7 -7 -7 -7 -7 -8 -8 -7 -7 -7 -7 -7 -7 -7 -7 -7 -7 -7 -7 -7 -7 -7
-7 -7 -8 -8 -8 -8 -8 -8 -8 -8 -8 -8 -8 -8 -8 -8 -8 -8 -8 -8 -8 -7 -7 -7 -7 -7 -7 -7 -7 -7 -7 -7 -8 -8 -7 -7 -7 -7 -7 -7 -7 -7 -7
-7 -7 -7 -7 -8 -8 -8 -8 -8 -8 -8 -8 -8 -8 -9 -8 -8 -8 -8 -8 -8 -7 -7 -7 -7 -7 -7 -7 -7 -7 -7 -8 -8 -8 -7 -7 -7 -7 -7 -7 -6 -6 -6
-7 -7 -7 -7 -8 -8 -9 -8 -8 -8 -8 -8 -8 -8 -9 -9 -8 -8 -9 -8 -8 -8 -7 -7 -7 -7 -7 -7 -7 -7 -7 -7 -8 -7 -7 -7 -7 -7 -6 -6 -6 -6 -6
-7 -7 -7 -8 -8 -9 -9 -9 -9 -9 -9 -9 -8 -9 -9 -9 -9 -9 -9 -9 -8 -8 -8 -8 -7 -7 -7 -7 -7 -7 -7 -7 -7 -7 -7 -7 -7 -6 -6 -6 -6 -6 -7
-7 -7 -7 -8 -8 -8 -9 -8 -9 -9 -9 -9 -9 -9 -9 -9 -9 -9 -9 -9 -9 -8 -8 -8 -7 -7 -7 -7 -7 -7 -7 -7 -7 -7 -7 -6 -6 -6 -6 -6 -7 -7 -7
-7 -7 -7 -8 -8 -8 -8 -8 -8 -9 -9 -9 -9 -9 -9 -9 -8 -8 -9 -9 -9 -9 -8 -8 -8 -8 -7 -7 -7 -7 -6 -7 -7 -7 -7 -6 -6 -6 -7 -7 -7 -7 -7
-7 -7 -7 -8 -8 -8 -9 -9 -8 -9 -9 -9 -9 -9 -9 -9 -9 -9 -9 -9 -9 -8 -8 -8 -8 -8 -7 -7 -7 -6 -6 -7 -7 -7 -7 -7 -7 -7 -6 -7 -7 -7 -7
-7 -7 -7 -8 -8 -8 -8 -9 -9 -9 -9 -9 -9 -9 -9 -9 -9 -9 -9 -9 -9 -9 -8 -8 -8 -7 -7 -7 -7 -7 -6 -7 -7 -7 -7 -7 -7 -7 -7 -7 -7 -7 -7
-6 -7 -7 -7 -8 -8 -9 -9 -9 -9 -9 -9 -9 -9 -10 -9 -9 -9 -9 -9 -9 -8 -8 -8 -8 -8 -8 -7 -7 -7 -7 -7 -7 -7 -7 -7 -7 -7 -7 -7 -7 -8 -8
-7 -7 -7 -7 -8 -8 -8 -9 -9 -9 -9 -9 -9 -10 -9 -10 -9 -9 -9 -9 -9 -9 -8 -8 -8 -7 -7 -7 -7 -7 -7 -7 -7 -7 -7 -7 -7 -7 -7 -8 -8 -8 -8
-7 -7 -7 -7 -8 -8 -8 -8 -9 -8 -9 -9 -9 -9 -9 -9 -9 -9 -9 -9 -9 -9 -8 -8 -8 -7 -7 -7 -7 -8 -8 -7 -7 -7 -7 -7 -7 -8 -8 -9 -9 -9 -9
-7 -7 -7 -7 -8 -7 -8 -8 -8 -8 -8 -9 -8 -9 -9 -9 -9 -10 -9 -9 -9 -9 -8 -8 -8 -8 -7 -7 -8 -8 -8 -7 -7 -8 -8 -8 -8 -8 -9 -9 -9 -10 -10
-7 -7 -7 -7 -7 -7 -7 -8 -8 -8 -8 -7 -8 -9 -9 -9 -9 -9 -8 -8 -8 -8 -8 -7 -7 -7 -8 -7 -7 -7 -8 -8 -8 -8 -8 -8 -8 -8 -9 -9 -9 -10 -10
-6 -6 -6 -7 -7 -7 -7 -8 -7 -8 -7 -7 -8 -8 -8 -8 -8 -8 -8 -8 -8 -8 -8 -8 -7 -7 -7 -8 -8 -7 -8 -8 -9 -9 -9 -9 -9 -9 -9 -9 -9 -9 -9
-6 -6 -7 -7 -7 -7 -7 -7 -7 -7 -7 -7 -7 -7 -7 -7 -8 -8 -8 -8 -9 -8 -8 -8 -8 -7 -7 -7 -7 -8 -8 -8 -8 -9 -9 -9 -9 -9 -9 -10 -9 -9 -9
-6 -6 -7 -7 -7 -7 -7 -7 -6 -7 -7 -7 -7 -6 -6 -7 -7 -8 -8 -8 -8 -7 -8 -8 -8 -8 -7 -7 -7 -8 -8 -9 -8 -9 -9 -9 -10 -10 -9 -9 -10 -10 -10
-6 -6 -6 -6 -7 -6 -7 -7 -7 -7 -6 -6 -6 -6 -6 -7 -7 -7 -8 -8 -7 -8 -7 -8 -8 -7 -7 -7 -7 -7 -7 -8 -8 -10 -9 -9 -10 -10 -10 -9 -10 -9 -9
-6 -6 -6 -6 -7 -6 -7 -7 -7 -7 -7 -7 -6 -6 -6 -6 -6 -7 -8 -8 -8 -8 -8 -8 -8 -7 -7 -7 -7 -7 -7 -8 -8 -9 -9 -9 -10 -9 -10 -10 -9 -9 -9
-6 -6 -6 -7 -6 -6 -7 -6 -6 -7 -7 -7 -7 -7 -7 -6 -6 -6 -6 -6 -7 -7 -8 -7 -8 -7 -7 -7 -8 -8 -8 -8 -9 -9 -9 -9 -9 -9 -9 -8 -8 -8 -9
-6 -6 -6 -6 -7 -6 -6 -6 -6 -6 -7 -7 -6 -6 -6 -6 -6 -6 -6 -6 -6 -7 -7 -7 -7 -7 -8 -8 -8 -8 -8 -8 -8 -9 -9 -8 -8 -8 -9 -8 -9 -9 -9
-6 -6 -6 -6 -7 -7 -7 -7 -7 -7 -7 -7 -7 -7 -6 -6 -7 -7 -6 -7 -7 -6 -6 -7 -8 -8 -7 -8 -8 -8 -8 -8 -9 -9 -9 -8 -8 -8 -8 -8 -9 -9 -9
-5 -5 -6 -6 -6 -7 -7 -7 -7 -7 -7 -7 -7 -7 -7 -6 -6 -6 -7 -6 -6 -6 -6 -6 -7 -7 -8 -8 -8 -8 -9 -9 -9 -9 -9 -9 -9 -9 -9 -9 -9 -9 -9
-5 -5 -6 -6 -6 -6 -7 -7 -7 -7 -7 -7 -7 -7 -7 -7 -7 -7 -6 -7 -6 -6 -6 -6 -6 -6 -7 -7 -7 -7 -8 -8 -9 -9 -9 -8 -9 -8 -9 -9 -10 -9 -9
Height
5879 5879 5881 5882 5883 5884 5885 5886 5886 5886 5888 5890 5892 5892 5894 5895 5897 5898 5899 5900 5900 5900 5900 5902 5903 5904 5905 5906 5907 5907 5907 5908 5908 5907 5905 5905 5905 5903 5902 5902 5901 5901 5900
5882 5882 5882 5884 5886 5886 5887 5888 5888 5889 5889 5890 5893 5894 5895 5897 5898 5900 5901 5900 5902 5902 5903 5904 5906 5906 5907 5908 5908 5909 5910 5910 5909 5909 5907 5905 5905 5905 5905 5904 5904 5903 5902
5886 5886 5887 5888 5889 5889 5890 5890 5891 5892 5892 5891 5892 5894 5896 5898 5900 5900 5901 5902 5903 5903 5905 5906 5909 5909 5910 5912 5912 5911 5912 5910 5910 5910 5910 5908 5909 5908 5908 5906 5906 5906 5905
5888 5889 5890 5891 5891 5891 5892 5893 5893 5893 5893 5894 5895 5896 5897 5899 5899 5900 5901 5903 5904 5904 5906 5907 5909 5910 5911 5913 5913 5913 5912 5912 5912 5913 5913 5912 5912 5911 5911 5910 5910 5909 5908
5889 5891 5892 5892 5892 5893 5894 5895 5895 5896 5896 5896 5896 5897 5896 5897 5898 5899 5900 5902 5903 5905 5907 5909 5912 5912 5913 5916 5916 5916 5915 5915 5915 5916 5915 5915 5915 5914 5915 5914 5914 5913 5912
5891 5892 5892 5893 5893 5894 5895 5896 5897 5897 5898 5897 5897 5897 5897 5898 5899 5900 5902 5903 5905 5907 5908 5910 5913 5914 5916 5919 5919 5919 5919 5918 5919 5919 5919 5918 5918 5918 5918 5917 5917 5916 5915
5894 5895 5895 5894 5894 5895 5896 5897 5898 5898 5898 5898 5898 5898 5898 5900 5901 5903 5904 5906 5908 5909 5912 5913 5914 5917 5918 5921 5921 5922 5922 5921 5922 5923 5922 5921 5921 5921 5920 5920 5919 5918 5917
5898 5898 5897 5897 5897 5898 5899 5899 5899 5898 5899 5900 5899 5899 5900 5901 5902 5903 5905 5907 5909 5911 5914 5916 5917 5919 5921 5923 5923 5923 5924 5926 5925 5925 5925 5924 5924 5924 5923 5922 5922 5921 5920
5901 5900 5900 5899 5900 5901 5901 5901 5901 5902 5902 5901 5902 5902 5903 5903 5904 5905 5906 5908 5911 5913 5915 5917 5918 5921 5923 5925 5926 5926 5927 5928 5929 5928 5927 5927 5927 5926 5926 5925 5924 5923 5923
5904 5903 5902 5902 5903 5903 5904 5906 5905 5904 5903 5904 5904 5906 5906 5906 5906 5907 5909 5911 5913 5915 5916 5918 5919 5921 5924 5926 5928 5929 5929 5931 5931 5930 5931 5930 5929 5929 5928 5927 5927 5926 5926
5906 5906 5905 5905 5906 5906 5907 5907 5906 5906 5906 5907 5907 5908 5909 5910 5911 5911 5911 5913 5914 5916 5919 5920 5922 5924 5926 5928 5929 5930 5932 5933 5934 5934 5934 5932 5932 5932 5931 5930 5930 5930 5929
5908 5907 5907 5908 5908 5909 5908 5908 5907 5908 5909 5908 5909 5911 5911 5913 5913 5914 5914 5916 5917 5920 5921 5923 5925 5927 5929 5931 5932 5933 5934 5936 5937 5937 5936 5935 5935 5935 5934 5934 5933 5932 5932
5910 5910 5911 5911 5910 5911 5911 5910 5911 5911 5912 5912 5913 5912 5911 5914 5913 5914 5917 5918 5920 5923 5926 5927 5929 5932 5934 5935 5935 5936 5937 5939 5939 5939 5939 5938 5938 5938 5938 5936 5936 5934 5934
5913 5913 5915 5914 5914 5915 5915 5914 5915 5916 5915 5916 5915 5914 5913 5915 5916 5917 5919 5920 5920 5923 5926 5930 5931 5934 5937 5938 5939 5939 5941 5942 5942 5942 5942 5941 5941 5941 5940 5939 5938 5937 5936
5916 5917 5917 5917 5917 5918 5918 5918 5918 5920 5920 5920 5919 5918 5917 5918 5919 5917 5920 5921 5921 5924 5927 5931 5933 5935 5938 5940 5940 5942 5944 5945 5945 5945 5945 5944 5944 5944 5944 5943 5941 5940 5939
5920 5920 5920 5920 5920 5921 5922 5922 5921 5923 5925 5924 5923 5924 5923 5923 5923 5921 5923 5925 5925 5929 5930 5930 5933 5935 5940 5942 5943 5944 5945 5947 5949 5949 5948 5948 5948 5949 5947 5946 5945 5944 5943
5923 5922 5922 5923 5924 5924 5924 5925 5926 5927 5928 5929 5928 5928 5928 5929 5928 5926 5929 5927 5929 5931 5934 5935 5936 5939 5942 5944 5945 5947 5948 5948 5950 5952 5951 5952 5952 5951 5951 5950 5949 5947 5946
5924 5924 5925 5926 5927 5927 5926 5927 5929 5929 5930 5931 5932 5933 5934 5933 5931 5930 5929 5931 5938 5939 5937 5939 5940 5943 5945 5947 5948 5949 5951 5952 5953 5954 5954 5954 5954 5954 5953 5952 5951 5950 5948
5925 5926 5928 5928 5929 5929 5929 5930 5931 5930 5931 5934 5936 5937 5939 5939 5937 5934 5934 5937 5941 5943 5940 5941 5944 5948 5949 5950 5951 5951 5954 5956 5956 5956 5956 5956 5955 5957 5956 5955 5953 5951 5951
5927 5928 5930 5930 5930 5932 5932 5932 5933 5934 5935 5936 5937 5940 5941 5941 5941 5939 5938 5942 5943 5944 5941 5944 5949 5951 5952 5952 5952 5955 5955 5956 5956 5956 5957 5957 5957 5956 5956 5956 5955 5954 5952
5927 5929 5930 5932 5932 5933 5933 5935 5937 5938 5939 5939 5940 5940 5941 5943 5944 5945 5944 5943 5942 5943 5946 5950 5952 5954 5954 5954 5955 5957 5957 5956 5955 5958 5959 5959 5958 5957 5956 5955 5955 5954 5953
5928 5929 5930 5932 5933 5934 5935 5935 5936 5939 5941 5941 5941 5942 5945 5945 5945 5945 5946 5948 5948 5948 5950 5952 5954 5956 5956 5956 5957 5958 5958 5959 5959 5960 5960 5958 5958 5958 5957 5957 5959 5958 5956
5929 5930 5930 5931 5933 5934 5935 5936 5937 5939 5941 5943 5943 5945 5946 5948 5947 5947 5949 5950 5951 5952 5952 5954 5955 5956 5956 5955 5956 5959 5958 5959 5960 5959 5957 5960 5961 5959 5960 5959 5961 5959 5957
5927 5929 5931 5930 5932 5934 5936 5936 5939 5939 5940 5942 5943 5945 5946 5948 5949 5948 5949 5950 5951 5952 5953 5953 5955 5957 5956 5955 5957 5959 5958 5959 5959 5959 5958 5959 5962 5961 5962 5962 5962 5959 5955
5925 5928 5931 5931 5930 5932 5935 5937 5938 5938 5940 5942 5945 5946 5947 5948 5948 5950 5951 5951 5953 5954 5953 5953 5954 5956 5955 5955 5956 5959 5957 5957 5959 5959 5958 5959 5961 5962 5962 5959 5958 5956 5952
5925 5927 5931 5931 5931 5932 5933 5936 5937 5938 5940 5943 5945 5946 5948 5949 5949 5949 5950 5952 5952 5953 5953 5953 5954 5955 5954 5956 5956 5958 5958 5956 5956 5958 5957 5958 5959 5959 5959 5957 5955 5952 5948
Wind_Speed
14 13 13 14 12 13 13 10 9 8 12 15 17 15 13 13 12 13 14 14 14 14 14 15 15 16 18 20 21 21 20 17 15 15 15 15 15 15 14 14 12 13 13
13 10 10 10 10 12 11 13 12 12 16 17 15 15 14 9 12 13 13 14 12 13 13 14 16 18 18 20 20 19 17 17 18 16 17 17 14 15 14 14 13 14 14
16 12 11 11 13 13 10 13 14 13 12 14 17 15 10 7 8 11 12 12 12 12 13 14 15 18 21 19 19 19 18 20 19 18 17 18 16 15 14 14 16 16 17
19 16 13 13 13 13 12 11 10 10 10 11 10 10 10 9 8 9 11 10 11 13 13 14 16 18 21 19 19 18 18 18 18 17 16 16 15 15 15 17 18 18 17
19 18 16 14 14 13 11 10 9 9 9 8 9 9 10 10 10 10 9 8 10 12 13 14 16 19 20 19 19 18 18 18 18 15 15 15 16 17 17 18 18 17 16
19 17 17 16 15 13 12 11 10 9 9 10 10 9 10 9 9 10 12 13 12 13 14 16 17 20 19 18 17 16 17 19 16 14 16 16 19 18 18 17 16 15 14
19 17 17 16 15 14 13 11 10 9 9 9 9 10 10 10 10 11 12 12 13 14 15 16 18 20 21 18 17 16 16 18 15 16 17 20 20 18 17 17 14 14 13
17 19 18 18 17 15 14 14 12 12 13 13 13 14 15 14 13 12 13 15 16 16 15 16 18 21 21 17 16 16 18 15 17 19 20 20 19 18 16 15 15 15 14
18 20 19 19 17 15 15 14 14 14 12 12 13 14 15 15 16 15 15 15 16 17 17 19 21 22 21 17 16 16 18 16 19 20 20 20 18 17 17 17 16 16 17
18 21 19 18 17 16 17 16 15 14 12 12 12 12 11 13 15 17 18 18 18 16 18 21 22 23 21 18 17 18 18 17 18 19 19 19 19 19 18 16 17 17 15
18 20 21 18 17 15 16 15 13 12 14 12 10 10 9 11 13 16 18 16 18 19 18 21 23 23 21 18 16 18 18 18 17 18 19 20 19 18 17 16 16 14 14
18 20 20 18 18 15 16 14 13 13 14 13 13 13 10 11 14 14 17 16 16 19 21 21 22 23 20 18 16 18 18 16 17 18 19 19 18 16 15 14 13 13 13
17 17 18 18 18 14 16 15 12 16 17 15 16 15 13 12 15 14 17 17 18 19 20 20 21 19 18 17 16 19 17 15 17 18 19 18 16 14 14 13 14 14 14
16 16 17 17 17 15 14 14 10 15 14 15 17 17 16 14 13 12 17 19 21 22 21 23 18 19 18 16 18 18 15 14 17 18 18 16 15 14 16 18 16 15 15
15 15 15 14 16 15 14 18 16 15 17 17 16 22 23 22 15 12 20 20 23 25 24 24 24 22 18 18 21 19 17 14 16 16 16 15 14 16 17 17 20 19 17
13 14 15 14 14 13 14 16 14 15 18 17 19 20 17 21 20 28 23 23 23 23 25 23 25 23 20 19 19 19 19 17 14 15 14 13 14 16 16 18 19 21 20
13 15 17 15 15 12 14 14 13 15 18 16 18 20 21 19 17 17 17 19 21 23 20 20 20 19 20 21 19 17 17 18 17 14 13 11 13 14 16 17 19 19 18
13 13 15 16 13 13 13 11 12 12 12 17 16 16 20 20 20 18 17 19 24 17 20 18 18 15 17 18 19 17 14 15 16 12 11 11 11 11 14 14 15 15 14
11 11 14 16 15 13 13 12 10 11 11 13 15 16 18 21 19 18 18 18 21 21 21 19 16 13 15 16 15 15 14 12 13 11 10 8 9 10 9 12 11 11 11
9 10 13 14 16 15 13 11 11 9 10 11 14 16 18 17 17 16 15 15 16 18 19 15 13 14 15 13 13 11 10 12 12 10 9 8 5 8 6 6 7 6 6
7 10 13 12 13 15 16 13 13 11 10 11 10 11 13 13 15 17 16 14 14 16 16 14 13 14 13 11 10 11 11 8 9 11 10 8 4 3 2 2 3 2 5
9 10 11 13 11 12 13 13 13 10 10 9 9 9 9 8 12 12 11 11 13 12 12 14 13 11 11 10 7 9 6 7 9 10 9 9 9 9 7 4 6 7 8
12 10 10 12 11 12 11 10 11 10 9 9 10 8 9 9 8 7 8 8 9 8 9 9 9 11 10 9 9 7 7 4 7 13 14 8 6 9 8 8 9 14 11
15 13 12 11 10 10 11 10 12 10 9 7 9 7 7 8 6 4 5 7 7 8 9 8 8 7 8 8 5 7 8 7 8 13 11 11 10 10 10 9 10 14 19
19 17 14 13 12 10 9 8 11 10 6 7 6 9 6 7 7 7 7 8 6 7 7 8 9 9 8 8 7 7 7 7 7 12 12 12 14 13 12 12 12 18 21
20 18 16 15 13 12 10 9 9 9 8 7 6 7 7 7 9 7 6 5 6 7 6 6 6 7 7 6 7 4 4 5 8 8 7 10 13 15 14 15 15 20 23
Wind_Direction
63 87 102 100 99 106 115 115 121 146 161 155 137 120 115 117 114 111 107 105 109 111 112 116 111 105 106 111 107 101 97 98 96 93 95 92 87 85 83 77 72 71 63
79 89 97 102 109 110 105 103 115 136 147 136 127 125 105 101 104 105 105 105 110 109 111 115 114 108 108 106 100 98 100 98 96 91 91 90 81 80 80 77 72 71 74
81 99 119 116 116 125 118 97 95 97 105 112 125 111 99 101 109 104 100 104 110 113 113 114 116 115 113 112 108 104 99 93 89 86 87 87 86 85 80 80 82 81 80
77 90 112 127 120 118 122 116 115 114 105 108 117 127 140 136 128 116 105 109 114 115 120 122 121 119 117 109 98 105 97 91 90 92 91 85 85 81 85 88 85 81 78
74 80 94 103 113 118 119 117 117 116 122 132 140 145 139 144 142 132 129 123 128 125 124 124 125 119 117 109 105 105 102 94 96 88 82 83 85 91 89 84 80 77 75
72 71 79 89 99 108 115 118 125 134 143 147 151 147 149 148 147 148 144 146 141 134 127 126 128 121 122 116 107 103 102 96 91 84 87 91 92 91 86 82 80 74 71
76 77 85 89 92 96 97 101 109 116 123 130 136 131 132 139 149 153 149 143 137 128 127 130 130 127 129 122 109 99 99 91 88 89 91 93 90 87 85 79 73 72 72
82 83 87 92 94 97 99 98 97 99 98 106 111 115 114 113 117 137 143 137 131 127 130 130 134 132 130 121 106 100 97 88 87 94 96 91 90 85 79 77 74 76 78
83 87 86 93 95 96 104 95 92 96 104 111 107 112 113 112 108 108 120 124 136 138 132 132 134 133 129 126 110 106 99 90 95 96 93 91 89 85 80 79 80 83 81
89 86 86 92 96 93 104 92 92 96 102 108 115 115 116 113 110 112 116 114 124 135 134 136 136 135 133 126 113 107 100 96 96 97 96 93 89 81 81 82 82 83 82
89 80 81 89 96 95 102 100 101 104 105 91 104 100 102 119 108 117 120 119 134 137 135 138 138 139 134 121 109 110 106 102 101 102 98 93 88 85 83 81 81 83 80
87 84 79 89 91 95 98 99 97 85 92 87 85 86 93 117 125 127 130 121 127 132 134 138 138 137 132 123 115 115 105 107 110 105 99 93 88 86 82 79 82 82 78
95 90 81 85 88 90 92 91 89 85 79 82 77 85 99 121 137 138 127 126 124 123 130 135 132 131 126 123 119 115 114 120 112 105 98 92 91 84 74 70 69 72 76
102 98 91 87 89 89 88 85 91 75 83 88 91 85 99 127 136 132 130 136 125 130 132 142 128 129 131 126 121 116 121 120 109 104 100 98 90 79 69 69 71 74 75
104 110 101 93 99 91 93 85 89 80 84 87 86 74 78 83 136 131 136 127 129 133 137 143 135 131 136 136 127 130 125 115 108 106 103 98 89 76 74 74 69 68 72
117 117 111 101 97 102 92 86 92 88 86 89 87 84 89 90 107 115 131 131 132 135 139 138 144 139 139 134 135 134 128 117 112 107 104 99 83 78 79 72 70 66 66
114 116 115 112 108 110 102 100 90 98 92 87 75 87 85 87 103 115 118 126 138 140 143 140 138 139 139 138 138 135 136 131 126 115 108 95 82 85 80 74 72 68 65
109 110 117 122 121 115 104 106 108 108 91 82 82 81 87 91 100 108 120 109 132 144 138 142 135 139 143 145 140 142 141 137 126 122 115 103 95 91 90 82 77 71 64
119 116 122 125 130 124 126 126 120 104 91 84 88 89 87 97 102 108 117 121 129 142 130 122 127 145 147 145 136 140 147 143 128 131 131 118 111 99 90 91 82 82 66
138 136 121 127 137 132 127 122 116 114 104 85 77 81 90 93 97 102 103 110 115 115 107 122 136 143 142 141 141 143 150 152 139 150 158 142 129 117 109 101 88 67 64
170 149 134 124 130 139 136 132 125 122 116 108 89 76 82 93 98 107 98 115 111 115 121 126 139 141 144 138 149 155 165 159 158 165 188 162 192 162 152 134 75 42 1
190 160 149 137 138 133 144 148 136 127 119 115 113 109 99 100 95 92 101 113 123 132 139 147 151 149 141 145 156 165 158 184 205 187 202 187 208 232 234 270 336 348 354
199 183 161 146 152 140 138 145 138 137 135 138 123 126 129 117 121 116 119 110 113 127 136 153 167 169 165 170 181 181 192 219 240 220 223 237 257 264 277 311 332 326 333
195 191 174 163 156 160 154 153 138 150 153 154 145 148 128 123 136 141 111 124 139 137 147 158 174 183 184 183 195 216 204 221 239 245 252 262 272 277 287 296 304 299 297
198 200 185 182 169 169 164 169 148 157 159 149 145 150 165 165 162 153 152 152 166 152 149 161 170 181 200 200 197 201 205 214 239 238 256 265 267 274 285 284 293 295 291
205 204 198 190 186 174 183 174 181 182 169 166 169 161 165 183 176 200 191 175 172 185 165 181 180 170 189 229 226 225 232 228 247 256 285 258 265 265 258 269 275 268 282